MDT,Max TemperatureF,Mean TemperatureF,Min TemperatureF,Max Dew PointF,MeanDew PointF,Min DewpointF,Max Humidity, Mean Humidity, Min Humidity, Max Sea Level PressureIn, Mean Sea Level PressureIn, Min Sea Level PressureIn, Max VisibilityMiles, Mean VisibilityMiles, Min VisibilityMiles, Max Wind SpeedMPH, Mean Wind SpeedMPH, Max Gust SpeedMPH,PrecipitationIn, CloudCover, Events, WindDirDegrees
2013-5-1,82,70,57,75,56,52,84,64,39,29.93,29.87,29.79,12,11,8,90,15,,0.00,5,,295
2013-5-2,82,70,57,69,57,50,82,64,42,29.90,29.85,29.78,11,9,6,17,7,,0.00,1,,238
2013-5-3,84,72,60,63,57,52,88,62,37,29.91,29.86,29.79,15,11,6,15,9,,0.00,3,,188
2013-5-4,82,70,57,64,55,48,90,61,30,29.96,29.90,29.85,15,12,8,14,8,,0.00,0,Fog,231
2013-5-5,82,71,60,68,57,52,77,63,42,29.98,29.92,29.84,12,11,10,18,9,,0.00,2,,306
2013-5-6,82,71,60,66,57,52,77,62,37,29.98,29.93,29.89,15,11,8,13,7,,0.00,0,,215
2013-5-7,84,72,60,69,56,52,78,58,35,30.01,29.94,29.87,15,11,6,18,9,,0.00,4,,279
2013-5-8,87,74,62,64,57,52,72,56,33,29.97,29.92,29.86,12,10,6,20,9,,0.00,4,,98
2013-5-9,86,75,64,72,59,52,78,56,35,29.98,29.91,29.60,15,12,5,16,8,,0.00,5,,189
2013-5-10,84,72,59,71,60,46,83,61,48,30.26,29.94,29.89,15,12,8,15,8,,0.00,1,,178
2013-5-11,86,74,62,70,59,48,89,58,32,29.99,29.88,29.80,15,12,8,17,7,,0.00,0,Fog,279
2013-5-12,86,70,55,70,54,43,83,52,30,29.90,29.84,29.76,15,12,10,15,7,,0.00,0,,274
2013-5-13,86,70,55,70,56,45,95,60,33,29.95,29.89,29.86,15,10,0,90,11,,0.00,3,Fog,307
2013-5-14,87,72,57,73,55,45,76,53,22,29.97,29.92,29.89,15,12,10,16,6,,0.00,3,,274
2013-5-15,89,73,57,69,55,45,93,51,21,29.99,29.92,29.81,12,11,10,16,8,,0.00,1,,282
2013-5-16,91,76,60,72,55,43,77,49,20,29.93,29.87,29.81,15,12,10,18,7,,0.00,3,,247
2013-5-17,89,74,60,70,57,50,81,54,27,29.94,29.88,29.82,14,11,6,17,7,,0.00,3,,253
2013-5-18,91,78,66,69,54,37,72,43,18,29.90,29.84,29.80,14,12,8,17,7,,0.00,5,,231
2013-5-19,86,76,66,70,56,46,69,47,33,29.88,29.82,29.76,14,11,10,14,7,,0.00,6,,181
2013-5-20,84,72,60,72,60,52,88,64,40,29.90,29.85,29.80,15,12,2,12,5,,0.00,4,,189
2013-5-21,86,74,62,72,60,54,95,65,33,29.86,29.82,29.76,15,8,0,16,6,,0.00,7,Fog,252
2013-5-22,86,76,66,71,61,55,78,60,42,29.84,29.79,29.73,12,10,8,17,6,,0.00,3,,198
2013-5-23,86,75,64,71,62,55,93,63,40,29.91,29.85,29.80,12,10,4,14,7,,0.00,1,,160
2013-5-24,84,75,66,71,62,57,78,63,48,29.92,29.87,29.80,12,10,8,20,9,,0.00,1,,271
2013-5-25,89,78,66,70,63,59,81,62,40,29.93,29.88,29.80,10,9,8,21,9,,0.00,0,,259
2013-5-26,87,76,66,74,65,59,91,65,45,29.96,29.88,29.78,10,7,1,20,7,,0.00,2,,272
2013-5-27,87,78,69,73,64,61,85,63,43,29.90,29.83,29.75,10,8,4,17,6,,0.00,2,,178
2013-5-28,87,78,68,73,64,48,78,63,27,29.82,29.78,29.72,12,9,4,14,8,,0.00,1,,145
2013-5-29,83,74,66,71,61,50,81,63,51,29.86,29.79,29.75,12,10,8,15,8,,0.00,1,,142
2013-5-30,84,74,64,69,60,55,73,59,48,29.92,29.86,29.80,12,10,6,15,9,,0.00,2,,194
2013-5-31,82,72,62,69,59,54,82,62,45,29.85,29.79,29.71,12,10,5,15,8,,0.00,1,,245